This is the latest recevied weather packets stored in our database for station/object N4QD-13. If no packets are shown the sender has not sent any weather packets the latest 10 day(s).
| Time | Temp. | Humidity | Pressure | Rain* | Wind** | Luminosity | Snow |
|---|---|---|---|---|---|---|---|
| 1777416903 | 15.56° C | 89% | 1017.5 hPa | 0 mm | - | 66 W/m² | - |
| 1777416597 | 15.56° C | 89% | 1017.5 hPa | 0 mm | - | 65 W/m² | - |
| 1777416294 | 15.56° C | 88% | 1017.8 hPa | 0 mm | - | 53 W/m² | - |
| 1777415993 | 16.11° C | 87% | 1017.7 hPa | 0 mm | - | 72 W/m² | - |
| 1777415689 | 16.11° C | 87% | 1017.6 hPa | 0 mm | - | 157 W/m² | - |
| 1777415385 | 15.56° C | 87% | 1017.6 hPa | 0 mm | - | 79 W/m² | - |
| 1777415085 | 16.11° C | 87% | 1017.7 hPa | 0 mm | - | 72 W/m² | - |
| 1777414784 | 16.11° C | 86% | 1017.5 hPa | 0 mm | - | 101 W/m² | - |
| 1777414481 | 16.67° C | 84% | 1017.5 hPa | 0 mm | - | 78 W/m² | - |
| 1777414180 | 16.67° C | 84% | 1017.3 hPa | 0 mm | - | 185 W/m² | - |
| 1777413876 | 17.22° C | 83% | 1017.2 hPa | 0 mm | - | 199 W/m² | - |
| 1777413571 | 16.67° C | 84% | 1017.1 hPa | 0 mm | - | 234 W/m² | - |
| 1777413268 | 16.67° C | 83% | 1016.8 hPa | 0 mm | - | 247 W/m² | - |
| 1777412963 | 16.67° C | 83% | 1016.8 hPa | 0 mm | - | 269 W/m² | - |
| 1777412662 | 16.67° C | 83% | 1016.9 hPa | 0 mm | - | 159 W/m² | - |
| 1777412361 | 17.22° C | 82% | 1016.7 hPa | 0 mm | - | 333 W/m² | - |
| 1777412060 | 17.78° C | 81% | 1016.7 hPa | 0 mm | - | 135 W/m² | - |
| 1777411755 | 17.78° C | 81% | 1016.9 hPa | 0 mm | - | 366 W/m² | - |
| 1777411450 | 17.78° C | 80% | 1016.6 hPa | 0 mm | - | 376 W/m² | - |
| 1777411144 | 18.33° C | 79% | 1016.4 hPa | 0 mm | - | 131 W/m² | - |
| 1777410844 | 18.89° C | 78% | 1016.5 hPa | 0 mm | - | 389 W/m² | - |
| 1777410544 | 18.33° C | 79% | 1016.5 hPa | 0 mm | - | 423 W/m² | - |
| 1777410243 | 18.33° C | 78% | 1016.6 hPa | 0 mm | - | 436 W/m² | - |
| 1777409938 | 18.33° C | 79% | 1016.7 hPa | 0 mm | - | 468 W/m² | - |
| 1777409633 | 18.89° C | 78% | 1016.8 hPa | 0 mm | - | 183 W/m² | - |
* Rain latest hour (hover to see other rain measurements)
** Current wind speed in m/s (hover to see current wind gust speed)